Time,TemperatureF,DewpointF,PressureIn,WindDirection,WindDirectionDegrees,WindSpeedMPH,WindSpeedGustMPH,Humidity,HourlyPrecipIn,Conditions,Clouds,dailyrainin,SolarRadiationWatts/m^2,SoftwareType,DateUTC
2013-02-20 00:11:00,-12.0,-20.0,-100.00,NW,320,7.0,11.0,68,0.00,,,0.00,0.000000,,2013-02-20 06:11:00,
2013-02-20 00:21:00,-12.0,-20.0,-100.00,NW,320,7.0,11.0,68,0.00,,,0.00,0.000000,,2013-02-20 06:21:00,
2013-02-20 00:32:00,-12.0,-20.0,-100.00,NW,320,7.0,11.0,68,0.00,,,0.00,0.000000,,2013-02-20 06:32:00,
2013-02-20 00:42:00,-12.0,-20.0,-100.00,NW,320,7.0,11.0,68,0.00,,,0.00,0.000000,,2013-02-20 06:42:00,
2013-02-20 00:51:00,-14.0,-22.0,-100.00,WNW,286,6.0,11.0,67,0.00,,,0.00,0.000000,,2013-02-20 06:51:00,
2013-02-20 01:11:00,-14.0,-22.0,-100.00,WNW,286,6.0,11.0,67,0.00,,,0.00,0.000000,,2013-02-20 07:11:00,
2013-02-20 01:21:00,-14.0,-22.0,-100.00,WNW,286,6.0,11.0,67,0.00,,,0.00,0.000000,,2013-02-20 07:21:00,
2013-02-20 01:31:00,-14.0,-22.0,-100.00,WNW,286,6.0,11.0,67,0.00,,,0.00,0.000000,,2013-02-20 07:31:00,
2013-02-20 01:41:00,-14.0,-22.0,-100.00,WNW,286,6.0,11.0,67,0.00,,,0.00,0.000000,,2013-02-20 07:41:00,
2013-02-20 01:51:00,-15.0,-22.0,-100.00,WNW,294,4.0,11.0,68,0.00,,,0.00,0.000000,,2013-02-20 07:51:00,
2013-02-20 02:11:00,-15.0,-22.0,-100.00,WNW,294,4.0,11.0,68,0.00,,,0.00,0.000000,,2013-02-20 08:11:00,
2013-02-20 02:21:00,-15.0,-22.0,-100.00,WNW,294,4.0,11.0,68,0.00,,,0.00,0.000000,,2013-02-20 08:21:00,
2013-02-20 02:31:00,-15.0,-22.0,-100.00,WNW,294,4.0,11.0,68,0.00,,,0.00,0.000000,,2013-02-20 08:31:00,
2013-02-20 02:41:00,-15.0,-22.0,-100.00,WNW,294,4.0,11.0,68,0.00,,,0.00,0.000000,,2013-02-20 08:41:00,
2013-02-20 02:51:00,-16.0,-23.0,-100.00,West,281,5.0,6.0,68,0.00,,,0.00,0.000000,,2013-02-20 08:51:00,
2013-02-20 03:11:00,-16.0,-23.0,-100.00,West,281,5.0,6.0,68,0.00,,,0.00,0.000000,,2013-02-20 09:11:00,
2013-02-20 03:21:00,-16.0,-23.0,-100.00,West,281,5.0,6.0,68,0.00,,,0.00,0.000000,,2013-02-20 09:21:00,
2013-02-20 03:31:00,-16.0,-23.0,-100.00,West,281,5.0,6.0,68,0.00,,,0.00,0.000000,,2013-02-20 09:31:00,
2013-02-20 03:42:00,-16.0,-23.0,-100.00,West,281,5.0,6.0,68,0.00,,,0.00,0.000000,,2013-02-20 09:42:00,
2013-02-20 03:51:00,-16.0,-23.0,-100.00,WNW,300,3.0,6.0,68,0.00,,,0.00,0.000000,,2013-02-20 09:51:00,
2013-02-20 04:12:00,-16.0,-23.0,-100.00,WNW,300,3.0,6.0,68,0.00,,,0.00,0.000000,,2013-02-20 10:12:00,
2013-02-20 04:22:00,-16.0,-23.0,-100.00,WNW,300,3.0,6.0,68,0.00,,,0.00,0.000000,,2013-02-20 10:22:00,
2013-02-20 04:32:00,-16.0,-23.0,-100.00,WNW,300,3.0,6.0,68,0.00,,,0.00,0.000000,,2013-02-20 10:32:00,
2013-02-20 04:42:00,-16.0,-23.0,-100.00,WNW,300,3.0,6.0,68,0.00,,,0.00,0.000000,,2013-02-20 10:42:00,
2013-02-20 04:51:00,-16.0,-24.0,-100.00,North,11,4.0,7.0,67,0.00,,,0.00,0.000000,,2013-02-20 10:51:00,
2013-02-20 05:21:00,-16.0,-24.0,-100.00,North,11,4.0,7.0,67,0.00,,,0.00,0.000000,,2013-02-20 11:21:00,
2013-02-20 05:32:00,-16.0,-24.0,-100.00,North,11,4.0,7.0,67,0.00,,,0.00,0.000000,,2013-02-20 11:32:00,
2013-02-20 05:42:00,-16.0,-24.0,-100.00,North,11,4.0,7.0,67,0.00,,,0.00,0.000000,,2013-02-20 11:42:00,
2013-02-20 05:51:00,-17.0,-25.0,-100.00,North,359,4.0,7.0,67,0.00,,,0.00,0.000000,,2013-02-20 11:51:00,
2013-02-20 06:12:00,-17.0,-25.0,-100.00,North,359,4.0,7.0,67,0.00,,,0.00,0.000000,,2013-02-20 12:12:00,
2013-02-20 06:21:00,-17.0,-25.0,-100.00,North,359,4.0,7.0,67,0.00,,,0.00,0.000000,,2013-02-20 12:21:00,
2013-02-20 06:32:00,-17.0,-25.0,-100.00,North,359,4.0,7.0,67,0.00,,,0.00,0.000000,,2013-02-20 12:32:00,
2013-02-20 06:42:00,-17.0,-25.0,-100.00,North,359,4.0,7.0,67,0.00,,,0.00,0.000000,,2013-02-20 12:42:00,
2013-02-20 06:51:00,-19.0,-27.0,-100.00,WNW,302,2.0,6.0,65,0.00,,,0.00,0.000000,,2013-02-20 12:51:00,
2013-02-20 07:11:00,-19.0,-27.0,-100.00,WNW,302,2.0,6.0,65,0.00,,,0.00,0.000000,,2013-02-20 13:11:00,
2013-02-20 07:22:00,-19.0,-27.0,-100.00,WNW,302,2.0,6.0,65,0.00,,,0.00,0.000000,,2013-02-20 13:22:00,
2013-02-20 07:32:00,-19.0,-27.0,-100.00,WNW,302,2.0,6.0,65,0.00,,,0.00,0.000000,,2013-02-20 13:32:00,
2013-02-20 07:42:00,-19.0,-27.0,-100.00,WNW,302,2.0,6.0,65,0.00,,,0.00,0.000000,,2013-02-20 13:42:00,
2013-02-20 07:51:00,-19.0,-28.0,-100.00,WNW,286,2.0,5.0,63,0.00,,,0.00,20.000000,,2013-02-20 13:51:00,
2013-02-20 08:21:00,-19.0,-28.0,-100.00,WNW,286,2.0,5.0,63,0.00,,,0.00,20.000000,,2013-02-20 14:21:00,
2013-02-20 08:32:00,-19.0,-28.0,-100.00,WNW,286,2.0,5.0,63,0.00,,,0.00,20.000000,,2013-02-20 14:32:00,
2013-02-20 08:42:00,-19.0,-28.0,-100.00,WNW,286,2.0,5.0,63,0.00,,,0.00,20.000000,,2013-02-20 14:42:00,
2013-02-20 08:51:00,-14.0,-23.0,-100.00,West,263,5.0,7.0,63,0.00,,,0.00,179.000000,,2013-02-20 14:51:00,
2013-02-20 09:11:00,-14.0,-23.0,-100.00,West,263,5.0,7.0,63,0.00,,,0.00,179.000000,,2013-02-20 15:11:00,
2013-02-20 09:22:00,-14.0,-23.0,-100.00,West,263,5.0,7.0,63,0.00,,,0.00,179.000000,,2013-02-20 15:22:00,
2013-02-20 09:32:00,-14.0,-23.0,-100.00,West,263,5.0,7.0,63,0.00,,,0.00,179.000000,,2013-02-20 15:32:00,
2013-02-20 09:42:00,-14.0,-23.0,-100.00,West,263,5.0,7.0,63,0.00,,,0.00,179.000000,,2013-02-20 15:42:00,
2013-02-20 09:51:00,-10.0,-20.0,-100.00,NNE,28,5.0,7.0,59,0.00,,,0.00,336.000000,,2013-02-20 15:51:00,
2013-02-20 10:21:00,-10.0,-20.0,-100.00,NNE,28,5.0,7.0,59,0.00,,,0.00,336.000000,,2013-02-20 16:21:00,
2013-02-20 10:32:00,-10.0,-20.0,-100.00,NNE,28,5.0,7.0,59,0.00,,,0.00,336.000000,,2013-02-20 16:32:00,
2013-02-20 10:42:00,-10.0,-20.0,-100.00,NNE,28,5.0,7.0,59,0.00,,,0.00,336.000000,,2013-02-20 16:42:00,
2013-02-20 11:51:00,1.0,-12.0,-100.00,NNE,12,3.0,6.0,53,0.00,,,0.00,539.000000,,2013-02-20 17:51:00,
2013-02-20 12:21:00,1.0,-12.0,-100.00,NNE,12,3.0,6.0,53,0.00,,,0.00,539.000000,,2013-02-20 18:21:00,
2013-02-20 12:32:00,1.0,-12.0,-100.00,NNE,12,3.0,6.0,53,0.00,,,0.00,539.000000,,2013-02-20 18:32:00,
2013-02-20 12:42:00,1.0,-12.0,-100.00,NNE,12,3.0,6.0,53,0.00,,,0.00,539.000000,,2013-02-20 18:42:00,
2013-02-20 12:51:00,3.0,-10.0,-100.00,SE,140,6.0,8.0,53,0.00,,,0.00,632.000000,,2013-02-20 18:51:00,
2013-02-20 13:21:00,3.0,-10.0,-100.00,SE,140,6.0,8.0,53,0.00,,,0.00,632.000000,,2013-02-20 19:21:00,
2013-02-20 13:31:00,3.0,-10.0,-100.00,SE,140,6.0,8.0,53,0.00,,,0.00,632.000000,,2013-02-20 19:31:00,
2013-02-20 13:41:00,3.0,-10.0,-100.00,SE,140,6.0,8.0,53,0.00,,,0.00,632.000000,,2013-02-20 19:41:00,
2013-02-20 13:51:00,3.0,-8.0,-100.00,SE,144,7.0,11.0,59,0.00,,,0.00,639.000000,,2013-02-20 19:51:00,
2013-02-20 14:21:00,3.0,-8.0,-100.00,SE,144,7.0,11.0,59,0.00,,,0.00,639.000000,,2013-02-20 20:21:00,
2013-02-20 14:31:00,3.0,-8.0,-100.00,SE,144,7.0,11.0,59,0.00,,,0.00,639.000000,,2013-02-20 20:31:00,
2013-02-20 14:41:00,3.0,-8.0,-100.00,SE,144,7.0,11.0,59,0.00,,,0.00,639.000000,,2013-02-20 20:41:00,
2013-02-20 14:51:00,6.0,-5.0,-100.00,SE,142,6.0,9.0,59,0.00,,,0.00,578.000000,,2013-02-20 20:51:00,
2013-02-20 15:11:00,6.0,-5.0,-100.00,SE,142,6.0,9.0,59,0.00,,,0.00,578.000000,,2013-02-20 21:11:00,
2013-02-20 15:21:00,6.0,-5.0,-100.00,SE,142,6.0,9.0,59,0.00,,,0.00,578.000000,,2013-02-20 21:21:00,
2013-02-20 15:31:00,6.0,-5.0,-100.00,SE,142,6.0,9.0,59,0.00,,,0.00,578.000000,,2013-02-20 21:31:00,
2013-02-20 15:42:00,6.0,-5.0,-100.00,SE,142,6.0,9.0,59,0.00,,,0.00,578.000000,,2013-02-20 21:42:00,
2013-02-20 15:51:00,6.0,-4.0,-100.00,East,79,7.0,9.0,63,0.00,,,0.00,425.000000,,2013-02-20 21:51:00,
2013-02-20 16:11:00,6.0,-4.0,-100.00,East,79,7.0,9.0,63,0.00,,,0.00,425.000000,,2013-02-20 22:11:00,
2013-02-20 16:21:00,6.0,-4.0,-100.00,East,79,7.0,9.0,63,0.00,,,0.00,425.000000,,2013-02-20 22:21:00,
2013-02-20 16:31:00,6.0,-4.0,-100.00,East,79,7.0,9.0,63,0.00,,,0.00,425.000000,,2013-02-20 22:31:00,
2013-02-20 16:42:00,6.0,-4.0,-100.00,East,79,7.0,9.0,63,0.00,,,0.00,425.000000,,2013-02-20 22:42:00,
2013-02-20 16:51:00,4.0,-6.0,-100.00,East,87,7.0,10.0,63,0.00,,,0.00,219.000000,,2013-02-20 22:51:00,
2013-02-20 17:12:00,4.0,-6.0,-100.00,East,87,7.0,10.0,63,0.00,,,0.00,219.000000,,2013-02-20 23:12:00,
2013-02-20 17:22:00,4.0,-6.0,-100.00,East,87,7.0,10.0,63,0.00,,,0.00,219.000000,,2013-02-20 23:22:00,
2013-02-20 17:32:00,4.0,-6.0,-100.00,East,87,7.0,10.0,63,0.00,,,0.00,219.000000,,2013-02-20 23:32:00,
2013-02-20 17:42:00,4.0,-6.0,-100.00,East,87,7.0,10.0,63,0.00,,,0.00,219.000000,,2013-02-20 23:42:00,
2013-02-20 17:51:00,3.0,-5.0,-100.00,East,100,6.0,10.0,69,0.00,,,-99.99,71.000000,,2013-02-20 23:51:00,
2013-02-20 18:21:00,3.0,-5.0,-100.00,East,100,6.0,10.0,69,0.00,,,-99.99,71.000000,,2013-02-21 00:21:00,
2013-02-20 18:32:00,3.0,-5.0,-100.00,East,100,6.0,10.0,69,0.00,,,-99.99,71.000000,,2013-02-21 00:32:00,
2013-02-20 18:42:00,3.0,-5.0,-100.00,East,100,6.0,10.0,69,0.00,,,-99.99,71.000000,,2013-02-21 00:42:00,
2013-02-20 18:51:00,1.0,-6.0,-100.00,East,94,5.0,6.0,71,0.00,,,0.00,2.000000,,2013-02-21 00:51:00,
2013-02-20 19:21:00,1.0,-6.0,-100.00,East,94,5.0,6.0,71,0.00,,,0.00,2.000000,,2013-02-21 01:21:00,
2013-02-20 19:32:00,1.0,-6.0,-100.00,East,94,5.0,6.0,71,0.00,,,0.00,2.000000,,2013-02-21 01:32:00,
2013-02-20 19:42:00,1.0,-6.0,-100.00,East,94,5.0,6.0,71,0.00,,,0.00,2.000000,,2013-02-21 01:42:00,
2013-02-20 19:51:00,-1.0,-7.0,-100.00,WSW,239,1.0,6.0,75,0.00,,,0.00,0.000000,,2013-02-21 01:51:00,
2013-02-20 20:11:00,-1.0,-7.0,-100.00,WSW,239,1.0,6.0,75,0.00,,,0.00,0.000000,,2013-02-21 02:11:00,
2013-02-20 20:21:00,-1.0,-7.0,-100.00,WSW,239,1.0,6.0,75,0.00,,,0.00,0.000000,,2013-02-21 02:21:00,
2013-02-20 20:32:00,-1.0,-7.0,-100.00,WSW,239,1.0,6.0,75,0.00,,,0.00,0.000000,,2013-02-21 02:32:00,
2013-02-20 20:42:00,-1.0,-7.0,-100.00,WSW,239,1.0,6.0,75,0.00,,,0.00,0.000000,,2013-02-21 02:42:00,
2013-02-20 20:51:00,-4.0,-9.0,-100.00,SSE,168,0.0,0.0,77,0.00,,,0.00,0.000000,,2013-02-21 02:51:00,
2013-02-20 21:12:00,-4.0,-9.0,-100.00,SSE,168,0.0,0.0,77,0.00,,,0.00,0.000000,,2013-02-21 03:12:00,
2013-02-20 21:21:00,-4.0,-9.0,-100.00,SSE,168,0.0,0.0,77,0.00,,,0.00,0.000000,,2013-02-21 03:21:00,
2013-02-20 21:32:00,-4.0,-9.0,-100.00,SSE,168,0.0,0.0,77,0.00,,,0.00,0.000000,,2013-02-21 03:32:00,
2013-02-20 21:42:00,-4.0,-9.0,-100.00,SSE,168,0.0,0.0,77,0.00,,,0.00,0.000000,,2013-02-21 03:42:00,
2013-02-20 21:51:00,-5.0,-11.0,-100.00,NNE,27,2.0,4.0,76,0.00,,,0.00,0.000000,,2013-02-21 03:51:00,
2013-02-20 22:22:00,-5.0,-11.0,-100.00,NNE,27,2.0,4.0,76,0.00,,,0.00,0.000000,,2013-02-21 04:22:00,
2013-02-20 22:32:00,-5.0,-11.0,-100.00,NNE,27,2.0,4.0,76,0.00,,,0.00,0.000000,,2013-02-21 04:32:00,
2013-02-20 22:42:00,-5.0,-11.0,-100.00,NNE,27,2.0,4.0,76,0.00,,,0.00,0.000000,,2013-02-21 04:42:00,
2013-02-20 23:22:00,-8.0,-14.0,-100.00,NNE,19,3.0,4.0,74,0.00,,,0.00,0.000000,,2013-02-21 05:22:00,